Temperature
6 7 7 8 8 8 7 7 7 9 10 9 9 9 11 11 11 12 12 12 12 12 12 12 12 11 11 11 12 12 12 12 12 13 13 12 12 12 12 12 12 11 11 11
7 7 8 8 7 7 6 6 7 8 9 8 8 9 11 11 11 11 12 12 12 12 12 11 11 11 11 11 11 12 12 12 12 12 12 12 12 12 12 12 11 11 11 11
7 8 7 7 6 6 7 7 7 7 8 8 8 9 10 11 11 11 11 11 11 11 12 11 11 11 11 11 11 12 12 12 12 12 12 12 12 12 12 12 12 11 11 11
7 7 6 6 6 7 7 8 7 7 6 7 7 8 11 11 11 11 11 11 11 11 11 11 10 10 11 11 11 11 11 12 12 12 12 12 11 11 12 12 12 11 11 11
7 7 6 6 7 7 7 7 7 6 6 6 7 7 10 11 10 11 12 11 11 10 10 10 10 10 11 11 11 11 11 11 12 12 12 12 12 11 11 11 11 11 11 11
6 7 6 6 7 7 6 6 6 6 6 5 7 7 9 11 10 11 11 11 10 10 10 10 10 10 10 10 10 11 11 11 11 12 12 12 12 11 11 11 11 11 11 11
6 6 6 6 6 6 6 5 5 6 5 7 8 8 9 10 10 10 10 10 10 10 10 9 9 9 9 10 10 10 11 11 11 11 12 12 12 11 11 11 11 11 11 11
5 6 6 6 6 6 6 5 5 5 6 8 7 8 10 10 10 9 9 9 9 9 9 9 9 9 9 9 10 10 10 11 11 11 12 12 11 11 11 11 11 11 12 12
5 5 6 6 6 6 5 5 6 5 5 5 7 8 9 9 9 9 9 8 8 8 8 8 8 8 8 9 9 10 10 11 11 11 12 12 11 11 11 11 11 11 12 12
4 4 5 5 5 5 6 6 5 4 4 5 7 8 9 8 8 8 9 8 8 8 7 8 8 8 8 8 9 9 10 10 11 11 11 11 12 11 11 11 11 11 12 12
4 3 4 5 5 5 5 4 4 4 4 5 6 8 9 8 8 8 8 8 7 7 7 7 7 7 8 8 8 9 9 10 10 11 11 11 12 11 11 11 11 12 12 12
3 3 3 5 5 5 5 5 4 4 4 4 5 7 9 8 8 8 8 7 7 6 6 6 7 7 7 8 8 8 9 9 10 11 11 11 12 11 11 11 12 12 12 12
3 2 2 4 4 3 3 3 3 3 3 4 4 7 9 8 8 7 7 7 6 6 6 6 6 6 7 7 7 8 8 9 10 10 11 11 11 11 12 12 12 12 12 12
3 2 2 3 4 4 3 3 3 2 3 4 5 6 8 8 7 7 7 6 6 6 5 5 5 6 6 7 7 7 8 8 9 9 10 11 11 11 12 12 11 11 11 11
2 2 2 3 4 3 3 3 3 3 3 3 5 6 7 7 7 6 6 6 5 5 5 5 5 5 6 6 7 7 7 8 8 9 9 10 11 11 11 11 11 11 11 11
1 1 2 2 3 3 3 3 4 4 4 4 4 5 6 6 6 6 5 5 5 5 4 4 4 4 5 6 6 6 7 7 8 8 9 10 10 11 11 11 11 11 11 11
1 0 1 2 3 2 3 4 4 4 4 4 4 5 6 5 6 5 5 4 4 4 4 4 4 4 4 5 5 6 6 7 7 8 8 9 10 10 10 10 11 11 11 11
0 0 0 1 1 1 4 5 4 4 4 4 4 4 5 5 5 4 4 4 4 3 3 3 3 3 4 4 5 5 6 6 7 7 8 8 9 10 10 10 10 10 10 10
1 0 0 1 1 2 4 4 4 3 4 4 4 4 4 4 4 4 4 3 3 3 3 2 3 3 3 4 4 5 5 6 6 7 7 8 9 9 9 10 10 10 10 10
1 0 0 1 1 2 4 4 3 3 3 4 4 4 4 4 4 5 4 3 2 2 2 2 2 3 3 4 4 5 5 6 6 7 7 8 8 8 9 9 10 10 10 10
-0 -0 -0 0 1 2 4 3 3 2 3 3 3 3 3 3 3 3 2 2 2 2 2 2 2 2 3 3 4 4 5 6 6 7 7 7 8 8 8 9 9 9 9 9
1 0 0 0 0 2 3 2 2 3 3 2 2 2 2 2 2 2 1 1 1 2 2 2 2 2 3 3 3 4 5 5 6 6 7 7 7 8 8 8 8 8 9 9
1 1 2 1 3 4 2 2 2 2 2 2 1 1 1 1 1 1 1 1 1 1 1 1 1 2 2 3 3 4 4 5 5 6 6 7 7 7 7 8 8 8 8 8
1 1 1 1 2 3 2 1 1 1 1 1 0 0 0 -0 -0 -0 0 0 0 1 1 1 1 1 2 2 3 3 4 5 5 5 6 6 6 6 7 7 7 8 8 8
1 0 0 1 2 2 2 1 0 0 -0 -0 -1 -1 -1 -1 -1 -1 -1 -0 -0 0 0 0 0 1 1 2 2 3 4 4 4 5 6 6 6 6 7 7 7 8 8 9
1 0 0 1 2 1 1 0 -0 -1 -1 -1 -1 -1 -1 -1 -1 -1 -1 -1 -1 -0 -0 -0 0 0 1 1 2 3 3 4 4 5 5 5 6 6 6 6 7 7 8 8
Wind_Speed
2 5 7 9 10 13 14 17 19 19 16 15 19 23 22 19 17 18 17 17 18 18 16 14 13 13 13 14 16 16 15 16 13 12 13 13 13 13 13 13 17 19 19 19
4 9 10 10 10 12 14 17 19 17 13 13 18 23 21 18 18 17 17 17 17 17 14 13 12 12 13 14 15 17 16 16 16 14 13 13 13 12 13 12 16 19 19 19
8 6 4 7 10 12 14 15 16 17 17 13 14 17 16 14 14 14 15 15 15 15 13 12 12 12 12 13 14 15 17 17 17 16 12 11 11 10 11 14 14 17 20 20
8 7 7 10 12 12 14 11 13 15 12 9 7 11 14 12 12 12 12 12 12 12 12 11 11 12 13 13 13 14 15 17 17 17 15 17 14 13 13 14 14 17 19 20
7 6 8 11 11 10 10 11 13 14 13 13 12 10 12 9 12 12 11 10 10 10 10 10 10 10 11 11 11 12 13 16 17 18 18 18 17 15 13 14 16 17 17 19
12 9 7 8 8 9 10 10 11 10 9 10 12 11 11 8 10 11 9 9 9 9 9 8 7 7 8 8 9 11 12 15 15 17 19 20 20 18 17 17 16 16 14 16
8 7 6 6 7 5 5 6 4 4 6 8 7 9 10 8 7 8 8 8 7 6 7 6 6 5 6 7 8 10 13 15 16 17 19 20 21 21 20 19 18 16 15 15
6 7 4 4 6 6 6 6 6 6 8 10 7 10 8 6 6 6 7 6 6 5 5 5 5 5 6 6 8 10 12 14 16 17 18 18 19 17 16 19 16 17 15 16
5 6 3 5 6 5 5 7 7 8 11 10 9 10 9 7 7 6 6 7 7 6 6 6 5 6 6 6 7 10 11 13 15 17 18 18 18 18 18 19 18 15 15 14
5 9 8 6 5 8 9 6 5 6 6 9 11 12 8 6 6 6 7 7 7 8 8 8 7 6 6 6 7 8 10 13 14 16 16 14 18 18 18 18 19 18 17 16
6 7 8 5 7 9 7 7 7 7 7 8 11 8 4 5 6 7 9 9 9 9 9 9 8 7 6 6 6 7 9 10 12 14 15 15 17 17 17 17 19 18 17 18
6 6 9 11 10 8 10 11 10 8 9 9 10 11 5 6 7 9 10 10 10 10 10 10 9 8 6 6 6 7 8 9 10 11 14 15 16 17 17 18 18 18 18 18
4 5 7 7 5 5 6 8 10 10 10 12 13 12 6 6 9 11 12 12 11 11 11 10 9 8 7 7 7 8 8 8 8 9 12 14 15 17 18 17 18 18 18 17
6 8 11 15 13 9 10 12 12 11 11 14 19 21 19 16 16 16 15 14 13 12 11 11 10 9 9 8 8 8 8 7 7 8 10 13 15 17 17 16 16 17 17 18
6 10 14 19 19 18 19 19 18 18 19 19 22 23 23 20 19 17 15 14 13 12 11 11 11 10 9 9 8 8 7 7 6 8 9 11 13 14 15 16 16 15 16 16
6 9 12 18 18 18 22 23 22 23 22 23 25 26 22 19 17 15 14 13 12 12 12 12 12 11 11 10 9 8 8 7 7 8 9 9 10 12 14 15 15 15 15 15
7 7 8 13 14 15 17 18 19 17 17 18 20 20 17 16 15 14 14 13 13 12 12 13 13 12 11 10 9 9 8 7 7 8 8 8 9 11 12 13 14 15 16 15
11 11 8 9 10 13 10 6 10 14 16 15 16 17 16 16 15 13 12 13 13 13 13 13 13 12 11 10 9 9 8 8 8 8 8 8 9 10 10 12 14 15 14 15
15 11 7 6 10 14 13 9 8 10 13 11 14 16 15 14 13 11 10 11 12 12 12 12 12 12 11 10 9 8 8 8 8 8 8 8 8 9 10 12 13 12 13 13
11 12 9 9 10 11 9 5 3 6 10 7 9 11 12 11 11 10 10 11 12 12 11 11 11 11 10 10 9 8 8 8 8 8 8 8 8 9 9 11 11 10 11 12
6 8 12 14 12 11 9 3 3 6 5 4 6 8 10 10 12 13 13 13 12 12 12 12 11 10 10 9 9 9 9 10 9 8 8 7 8 8 8 9 9 9 9 11
9 8 9 9 11 11 3 4 5 7 6 7 8 9 11 13 14 14 14 14 14 13 13 12 11 11 10 9 9 9 10 9 8 7 7 7 7 6 6 8 9 9 10 11
10 10 6 9 10 7 4 7 8 8 10 11 11 12 12 14 15 15 15 14 14 14 13 12 12 12 10 9 9 10 10 9 7 7 7 6 6 7 8 9 10 10 10 10
8 9 9 10 14 14 12 12 12 11 12 13 13 13 13 14 16 16 15 14 14 13 12 11 12 12 11 10 10 11 10 8 8 7 7 6 6 7 7 7 8 9 10 10
11 7 10 15 16 15 13 11 11 11 11 12 13 13 13 14 15 15 15 14 13 13 12 12 12 12 12 11 11 10 9 8 8 7 6 6 7 7 7 7 8 9 10 10
11 12 12 13 12 11 12 10 10 11 12 13 14 15 14 13 15 16 15 14 14 14 13 12 13 13 12 11 11 10 9 8 8 7 6 6 6 6 6 6 4 4 7 9
Wind_Direction
222 244 259 268 260 270 279 282 280 284 290 284 277 277 279 279 274 266 262 260 257 253 252 245 238 233 229 222 215 208 209 201 193 189 185 184 184 183 182 184 183 184 183 184
248 253 266 276 275 273 270 276 280 288 295 289 282 280 277 272 267 264 263 261 259 256 249 241 236 230 224 220 216 209 209 203 196 194 190 189 186 186 184 183 186 187 187 187
259 283 287 270 272 274 267 268 280 289 301 284 283 281 269 266 264 263 260 259 258 256 251 242 234 229 223 217 215 212 210 205 198 193 190 183 180 180 185 187 188 190 190 190
264 267 267 272 274 275 278 274 279 283 288 284 276 287 281 275 267 262 262 261 258 254 251 244 234 231 225 218 215 214 213 209 200 192 193 187 187 190 194 190 190 190 192 192
265 269 270 270 272 275 278 289 279 274 275 277 263 265 277 271 268 265 263 263 258 251 248 244 236 235 233 222 215 212 213 212 202 195 194 194 196 197 194 190 190 189 192 194
266 268 266 264 275 271 284 287 277 259 258 261 253 250 277 271 273 277 276 276 267 257 253 247 243 243 242 230 220 211 211 213 205 201 196 198 197 196 192 190 190 191 191 194
282 253 241 252 274 260 265 284 282 255 238 257 259 251 262 285 289 286 288 288 287 280 270 255 245 243 249 236 224 218 215 213 206 204 201 201 200 197 196 194 194 192 192 194
291 279 235 234 250 270 254 248 263 280 274 287 271 252 270 286 293 296 294 299 304 302 304 284 264 253 247 243 231 222 223 218 208 206 204 202 203 200 199 198 195 196 197 197
271 279 265 260 258 249 252 242 258 274 278 276 263 265 273 277 284 292 299 308 310 307 309 301 284 269 258 249 245 234 230 222 213 209 205 204 204 204 202 199 199 199 199 198
259 276 276 273 254 233 246 262 248 248 274 271 272 271 279 297 301 307 311 314 312 313 311 305 299 289 274 258 250 242 234 225 219 212 208 206 205 206 205 200 200 200 198 195
240 258 275 262 240 251 233 236 238 251 257 271 278 276 291 309 314 310 310 311 309 313 313 309 300 291 284 279 265 252 240 228 224 217 211 210 206 205 206 203 202 201 198 195
228 253 269 265 263 264 251 245 238 251 256 254 271 273 272 300 309 313 314 315 315 316 313 311 303 296 288 284 276 264 244 235 230 225 215 212 210 205 204 205 203 201 200 197
213 235 276 273 238 224 243 245 247 253 261 258 260 268 266 288 302 310 310 311 313 313 314 312 309 303 297 288 279 270 249 239 235 232 222 213 212 207 205 206 204 200 199 198
246 233 242 263 279 282 269 263 253 246 254 261 259 270 279 286 296 302 304 304 307 310 313 313 312 308 299 290 281 270 259 246 238 233 229 217 214 210 206 205 203 200 197 196
242 254 254 263 271 273 270 269 262 251 251 259 267 272 279 289 293 296 298 300 302 305 309 311 310 309 307 300 291 276 268 256 245 237 232 225 217 213 207 204 201 199 196 196
229 258 269 270 268 270 270 267 263 259 257 257 264 269 277 286 289 291 295 296 296 298 304 306 306 306 304 301 295 286 273 262 249 241 239 232 222 212 207 204 199 195 194 192
229 245 264 272 281 283 268 261 257 256 253 254 259 269 284 288 289 288 292 295 294 295 299 302 302 300 297 294 290 284 276 264 253 244 240 231 222 211 207 202 197 194 193 191
234 239 250 271 277 257 264 278 265 263 261 259 263 273 280 283 288 287 289 294 296 297 297 299 300 298 294 290 287 285 279 261 251 245 239 228 220 211 204 199 198 195 191 191
222 226 238 250 260 270 276 270 263 261 267 266 270 276 282 289 286 278 287 295 294 296 297 297 298 296 292 286 284 282 277 263 252 245 240 228 217 210 203 199 198 195 191 190
213 218 232 240 254 265 279 293 275 258 268 283 281 280 285 292 284 287 307 303 295 296 298 298 300 298 291 286 281 275 271 260 253 248 243 231 219 209 204 199 196 193 190 186
204 219 230 241 252 264 278 285 201 235 277 318 298 292 290 281 278 294 302 299 296 297 299 300 299 295 289 285 278 268 265 256 254 252 245 232 221 209 203 198 192 187 185 179
216 220 225 235 245 255 239 184 219 260 294 295 298 300 296 291 292 295 297 297 297 298 299 300 298 294 291 283 273 268 266 265 256 246 240 227 217 205 195 191 184 180 179 176
222 224 233 227 244 274 231 234 256 276 282 290 295 298 299 296 296 298 298 297 296 298 298 298 295 292 288 281 270 266 269 267 252 239 230 218 211 199 192 187 181 178 178 176
235 231 240 253 259 266 268 267 271 274 278 289 293 295 294 293 295 297 295 295 295 297 297 296 292 287 286 284 276 269 267 257 242 231 222 211 206 198 192 187 184 182 181 179
243 225 241 255 266 276 268 267 274 281 286 291 293 292 291 291 292 293 293 294 294 295 295 293 287 283 283 282 277 273 266 247 233 228 216 206 204 195 192 191 192 188 189 185
234 232 241 256 264 265 274 282 285 284 287 291 294 294 291 289 290 291 291 291 293 293 293 292 288 283 282 278 273 271 263 241 229 221 212 203 195 190 186 179 173 168 173 165
Height
1472 1471 1464 1461 1462 1460 1458 1455 1449 1443 1441 1441 1434 1428 1423 1422 1420 1416 1414 1413 1412 1412 1413 1414 1415 1417 1419 1421 1424 1426 1429 1433 1436 1441 1445 1450 1456 1461 1466 1471 1476 1481 1485 1490
1469 1464 1461 1461 1461 1460 1457 1454 1446 1439 1439 1438 1430 1422 1416 1414 1412 1411 1409 1408 1407 1407 1407 1408 1409 1411 1412 1414 1417 1420 1423 1427 1431 1435 1440 1446 1451 1457 1462 1467 1472 1477 1481 1485
1464 1459 1460 1461 1458 1456 1452 1449 1444 1441 1437 1434 1430 1415 1407 1404 1404 1404 1403 1402 1402 1401 1402 1403 1404 1405 1407 1408 1411 1414 1418 1421 1425 1430 1435 1441 1447 1452 1456 1461 1466 1471 1476 1481
1461 1459 1459 1458 1454 1452 1446 1443 1443 1441 1439 1430 1427 1415 1399 1397 1398 1398 1397 1397 1396 1396 1397 1398 1399 1400 1401 1403 1405 1408 1412 1415 1420 1424 1429 1433 1438 1443 1447 1454 1460 1465 1471 1476
1456 1457 1456 1453 1450 1449 1444 1443 1442 1438 1436 1432 1423 1421 1398 1394 1393 1391 1391 1392 1392 1392 1392 1393 1393 1395 1396 1398 1399 1402 1405 1410 1414 1418 1423 1428 1433 1438 1444 1449 1454 1460 1465 1470
1456 1455 1455 1450 1449 1448 1445 1443 1437 1433 1433 1429 1415 1414 1395 1389 1389 1387 1388 1388 1388 1388 1388 1388 1389 1391 1392 1393 1395 1398 1401 1404 1408 1412 1417 1422 1427 1432 1438 1442 1447 1453 1458 1464
1451 1450 1450 1450 1448 1445 1445 1444 1435 1429 1426 1414 1406 1406 1393 1388 1388 1388 1387 1387 1386 1385 1385 1385 1385 1386 1388 1389 1390 1393 1396 1399 1402 1407 1411 1416 1421 1426 1431 1436 1441 1446 1451 1456
1452 1443 1445 1447 1446 1443 1442 1443 1439 1430 1414 1404 1405 1399 1388 1388 1389 1388 1388 1387 1386 1384 1382 1382 1382 1383 1384 1385 1386 1389 1391 1393 1397 1401 1405 1410 1415 1420 1426 1431 1436 1440 1445 1450
1452 1445 1444 1445 1444 1443 1440 1438 1436 1435 1424 1419 1401 1390 1386 1387 1386 1386 1386 1385 1383 1382 1381 1380 1380 1380 1380 1381 1382 1384 1386 1388 1391 1395 1399 1404 1409 1414 1420 1425 1431 1435 1440 1445
1454 1450 1442 1442 1443 1440 1439 1436 1437 1435 1426 1410 1394 1387 1383 1383 1384 1384 1383 1382 1382 1381 1379 1378 1377 1377 1377 1377 1378 1380 1381 1383 1386 1389 1393 1398 1403 1408 1413 1419 1424 1429 1434 1439
1454 1453 1441 1440 1437 1433 1436 1436 1434 1429 1425 1415 1398 1386 1383 1384 1384 1384 1383 1382 1381 1379 1377 1376 1375 1374 1374 1374 1374 1375 1377 1379 1381 1383 1387 1392 1397 1402 1407 1412 1417 1423 1428 1433
1451 1449 1440 1433 1431 1432 1431 1429 1429 1429 1422 1417 1406 1390 1382 1383 1384 1384 1383 1381 1380 1378 1376 1374 1373 1372 1371 1370 1371 1371 1372 1374 1376 1378 1382 1386 1391 1396 1401 1405 1411 1416 1421 1427
1449 1449 1440 1426 1429 1432 1432 1428 1428 1427 1422 1412 1404 1387 1379 1382 1382 1383 1382 1380 1378 1376 1374 1372 1370 1368 1367 1367 1367 1367 1367 1369 1370 1373 1376 1381 1385 1390 1394 1399 1404 1409 1414 1420
1444 1442 1438 1428 1419 1424 1426 1425 1424 1425 1418 1406 1395 1383 1378 1379 1380 1380 1379 1378 1376 1374 1372 1369 1367 1365 1364 1364 1364 1363 1363 1364 1365 1368 1371 1374 1379 1383 1388 1393 1398 1403 1408 1413
1441 1435 1430 1424 1421 1421 1418 1415 1415 1415 1410 1404 1389 1383 1377 1378 1378 1378 1377 1375 1374 1371 1369 1367 1365 1363 1361 1360 1359 1359 1359 1359 1361 1363 1365 1368 1373 1378 1383 1387 1392 1397 1402 1407
1436 1432 1426 1420 1415 1414 1410 1405 1403 1400 1397 1394 1388 1381 1377 1377 1376 1374 1373 1372 1370 1368 1366 1364 1362 1359 1357 1356 1355 1355 1354 1355 1356 1358 1360 1363 1367 1371 1376 1381 1386 1391 1396 1401
1431 1431 1426 1414 1409 1409 1400 1391 1390 1388 1385 1385 1380 1375 1374 1373 1372 1371 1370 1368 1367 1365 1363 1361 1358 1356 1354 1353 1352 1351 1351 1351 1352 1353 1355 1358 1361 1365 1370 1375 1380 1384 1389 1394
1426 1425 1422 1414 1411 1407 1384 1383 1383 1381 1378 1378 1376 1373 1372 1371 1369 1368 1367 1365 1363 1361 1359 1357 1354 1352 1350 1349 1348 1347 1347 1347 1347 1349 1351 1353 1356 1359 1364 1369 1374 1378 1383 1388
1417 1419 1416 1411 1403 1388 1379 1379 1380 1379 1374 1374 1372 1370 1368 1367 1365 1363 1362 1361 1360 1358 1356 1353 1350 1348 1345 1344 1343 1342 1342 1342 1343 1344 1346 1348 1351 1354 1358 1362 1368 1373 1377 1382
1412 1414 1412 1406 1401 1388 1373 1376 1377 1379 1372 1369 1369 1367 1366 1365 1362 1357 1358 1357 1356 1353 1351 1348 1346 1343 1341 1339 1339 1338 1338 1338 1338 1339 1341 1344 1346 1349 1353 1357 1363 1367 1372 1377
1407 1407 1404 1399 1393 1379 1374 1375 1377 1377 1369 1368 1367 1366 1364 1363 1361 1358 1356 1353 1351 1349 1346 1344 1341 1339 1337 1335 1335 1334 1333 1334 1334 1336 1337 1339 1342 1345 1349 1353 1358 1363 1367 1372
1395 1395 1394 1392 1389 1378 1371 1374 1373 1368 1367 1367 1365 1364 1362 1360 1357 1355 1352 1349 1346 1343 1341 1339 1336 1333 1332 1331 1330 1328 1328 1329 1330 1331 1333 1335 1338 1341 1345 1349 1353 1358 1363 1367
1387 1383 1380 1379 1373 1368 1369 1369 1368 1367 1366 1364 1363 1361 1359 1356 1353 1350 1348 1345 1342 1339 1336 1334 1331 1328 1327 1326 1325 1324 1323 1324 1325 1326 1328 1330 1333 1337 1341 1345 1349 1353 1358 1363
1379 1379 1378 1374 1366 1366 1366 1365 1365 1364 1362 1361 1359 1357 1355 1352 1349 1346 1343 1340 1337 1334 1332 1329 1327 1324 1322 1321 1320 1319 1319 1320 1321 1322 1324 1326 1329 1333 1337 1341 1345 1348 1353 1357
1371 1374 1371 1366 1362 1362 1360 1360 1360 1359 1357 1356 1355 1353 1351 1348 1344 1342 1338 1335 1332 1329 1326 1324 1322 1319 1317 1316 1315 1314 1314 1315 1316 1317 1319 1322 1325 1328 1332 1336 1340 1344 1348 1352
1365 1365 1364 1358 1357 1358 1356 1356 1356 1354 1353 1351 1349 1347 1345 1343 1339 1336 1333 1330 1326 1323 1321 1318 1316 1313 1312 1311 1310 1309 1310 1311 1312 1313 1315 1318 1321 1324 1328 1332 1337 1341 1346 1351